EXPRESS 1 1 23319U 94067A 21063.57719959 -.00000163 00000-0 00000-0 0 9999 2 23319 13.9317 16.5398 0001243 331.7103 189.5912 0.99834793 96309 SL-12 R/B(2) 1 23322U 94067D 21063.09285692 -.00000094 00000-0 00000-0 0 9995 2 23322 14.8713 0.1978 0010668 69.3334 118.0315 1.00285775 96641